SAS7302 LGSA-ENAL

Flight info

Callsign SAS7302
Flight time N/A
Altitude 32000
Route SOKRI UY151 DDM/N0447F330 DCT KUGGI/N0451F340 DCT TALAS DCT LONTA UM749 UDVAR DCT PARAK DCT BILNA DCT XIDNA DCT POKEN/N0446F360 DCT OBITI
Aircraft A320/M-SDE3FGHIRWY/LB1

Departure

Time N/A
Airport Chania International Airport (LGSA)

Arrival

Time 2026-04-30 22:53
Airport Ålesund Airport (ENAL)
Time Latitude Longitude Altitude Speed Heading
2026-04-30 22:07 58.80730 10.97119 32384 ft 417 kts 333°
2026-04-30 22:07 58.83265 10.94535 32384 ft 417 kts 333°
2026-04-30 22:07 58.88396 10.89297 32383 ft 417 kts 333°
2026-04-30 22:08 58.93532 10.84070 32359 ft 417 kts 332°
2026-04-30 22:08 58.98666 10.78817 32338 ft 419 kts 332°
2026-04-30 22:09 59.03811 10.73504 32350 ft 418 kts 332°
2026-04-30 22:09 59.08935 10.68195 32388 ft 417 kts 332°
2026-04-30 22:10 59.14055 10.62876 32395 ft 417 kts 332°
2026-04-30 22:10 59.19177 10.57550 32398 ft 417 kts 332°
2026-04-30 22:11 59.26837 10.49531 32393 ft 416 kts 332°
2026-04-30 22:12 59.31949 10.44168 32351 ft 417 kts 332°
2026-04-30 22:12 59.37054 10.38807 32353 ft 417 kts 332°
2026-04-30 22:13 59.42163 10.33414 32335 ft 417 kts 331°
2026-04-30 22:13 59.47269 10.27985 32333 ft 418 kts 331°
2026-04-30 22:14 59.52342 10.22564 32340 ft 418 kts 330°
2026-04-30 22:14 59.57486 10.17068 32326 ft 418 kts 330°
2026-04-30 22:15 59.62594 10.11595 32331 ft 417 kts 330°
2026-04-30 22:15 59.67693 10.06110 32328 ft 417 kts 330°
2026-04-30 22:16 59.72762 10.00641 32326 ft 417 kts 330°
2026-04-30 22:17 59.82958 9.89572 32327 ft 417 kts 329°
2026-04-30 22:17 59.90602 9.81223 32313 ft 418 kts 329°
2026-04-30 22:18 59.98251 9.72827 32309 ft 418 kts 329°
2026-04-30 22:19 60.05894 9.64385 32306 ft 419 kts 329°
2026-04-30 22:20 60.13539 9.55917 32345 ft 419 kts 329°
2026-04-30 22:20 60.21173 9.47400 32339 ft 418 kts 328°
2026-04-30 22:21 60.26250 9.41706 32335 ft 418 kts 328°
2026-04-30 22:21 60.31329 9.35990 32341 ft 419 kts 328°
2026-04-30 22:22 60.36419 9.30255 32339 ft 419 kts 328°
2026-04-30 22:22 60.41507 9.24490 32336 ft 419 kts 328°
2026-04-30 22:23 60.46600 9.18701 32363 ft 419 kts 327°
2026-04-30 22:23 60.51692 9.12901 32360 ft 420 kts 327°
2026-04-30 22:24 60.56773 9.07081 32352 ft 419 kts 327°
2026-04-30 22:24 60.61847 9.01219 32356 ft 419 kts 327°
2026-04-30 22:25 60.66924 8.95351 32373 ft 419 kts 327°
2026-04-30 22:25 60.72003 8.89482 32366 ft 419 kts 327°
2026-04-30 22:26 60.79624 8.80617 32378 ft 420 kts 326°
2026-04-30 22:27 60.84701 8.74685 32384 ft 420 kts 326°
2026-04-30 22:27 60.92313 8.65769 32380 ft 420 kts 326°
2026-04-30 22:28 60.99882 8.56824 32386 ft 419 kts 326°
2026-04-30 22:29 61.09996 8.44838 32389 ft 419 kts 325°
2026-04-30 22:31 61.27676 8.23592 32358 ft 421 kts 325°
2026-04-30 22:32 61.40324 8.08250 32353 ft 422 kts 325°
2026-04-30 22:33 61.47944 7.98920 31734 ft 423 kts 325°
2026-04-30 22:33 61.53033 7.92670 31230 ft 424 kts 325°
2026-04-30 22:34 61.60645 7.83273 30486 ft 421 kts 325°
2026-04-30 22:35 61.65672 7.77042 29802 ft 415 kts 324°
2026-04-30 22:36 61.75387 7.64952 27665 ft 398 kts 323°
2026-04-30 22:36 61.77760 7.61980 27152 ft 395 kts 323°
2026-04-30 22:37 61.84738 7.53175 25646 ft 385 kts 323°
2026-04-30 22:37 61.87005 7.50301 25174 ft 384 kts 323°
2026-04-30 22:37 61.91579 7.44495 24206 ft 382 kts 323°
2026-04-30 22:38 61.96115 7.38723 23257 ft 377 kts 322°
2026-04-30 22:38 62.00834 7.33410 21454 ft 397 kts 328°
2026-04-30 22:39 62.03364 7.30908 20668 ft 402 kts 329°
2026-04-30 22:39 62.10840 7.23842 18650 ft 384 kts 328°
2026-04-30 22:40 62.18021 7.16837 15768 ft 370 kts 327°
2026-04-30 22:41 62.24632 7.10312 14096 ft 325 kts 327°
2026-04-30 22:41 62.28605 7.06353 13159 ft 312 kts 326°
2026-04-30 22:42 62.36516 6.98399 11368 ft 318 kts 326°
2026-04-30 22:43 62.40535 6.94362 10636 ft 316 kts 327°
2026-04-30 22:43 62.43786 6.91135 10419 ft 298 kts 327°
2026-04-30 22:44 62.47489 6.87431 10173 ft 292 kts 326°
2026-04-30 22:45 62.54836 6.79952 8735 ft 290 kts 326°
2026-04-30 22:45 62.58471 6.76265 8103 ft 287 kts 327°
2026-04-30 22:46 62.62058 6.72648 6862 ft 282 kts 324°
2026-04-30 22:47 62.65761 6.61178 5369 ft 217 kts 270°
2026-04-30 22:47 62.65449 6.54783 4331 ft 207 kts 247°
2026-04-30 22:48 62.64298 6.49237 3751 ft 200 kts 242°
2026-04-30 22:49 62.62587 6.41250 2958 ft 184 kts 242°
2026-04-30 22:49 62.61058 6.34153 2270 ft 151 kts 243°
2026-04-30 22:50 62.59450 6.26662 1489 ft 134 kts 242°
2026-04-30 22:51 62.58648 6.23014 1124 ft 134 kts 243°
2026-04-30 22:51 62.57866 6.19380 750 ft 132 kts 245°
2026-04-30 22:52 62.57485 6.17607 586 ft 129 kts 244°
2026-04-30 22:52 62.56733 6.14158 238 ft 127 kts 245°
2026-04-30 22:53 62.56034 6.10985 83 ft 68 kts 244°
2026-04-30 22:53 62.55893 6.10412 66 ft 3 kts 128°
2026-04-30 22:53 62.55929 6.10509 64 ft 16 kts 62°
2026-04-30 22:54 62.55922 6.10898 81 ft 13 kts 105°
2026-04-30 22:55 62.55940 6.11323 81 ft 11 kts 63°
2026-04-30 22:55 62.55984 6.11587 82 ft 7 kts 120°
2026-04-30 22:56 62.55956 6.11632 79 ft 0 kts 153°